This is the latest recevied weather packets stored in our database for station/object KO4LFZ. If no packets are shown the sender has not sent any weather packets the latest 1 day(s).
| Time | Temp. | Humidity | Pressure | Rain* | Wind** | Luminosity | Snow |
|---|---|---|---|---|---|---|---|
| 1778058121 | 9.44° C | 99% | 1010.8 hPa | 0 mm | - | 0 W/m² | - |
| 1778057514 | 9.44° C | 99% | 1010.2 hPa | 0 mm | - | 0 W/m² | - |
| 1778057211 | 9.44° C | 99% | 1010.2 hPa | 0 mm | - | 0 W/m² | - |
| 1778055999 | 9.44° C | 99% | 1009.8 hPa | 0 mm | - | 0 W/m² | - |
| 1778055694 | 9.44° C | 99% | 1009.5 hPa | 0 mm | - | 0 W/m² | - |
| 1778055393 | 9.44° C | 99% | 1009.5 hPa | 0 mm | - | 0 W/m² | - |
| 1778055090 | 9.44° C | 99% | 1009.7 hPa | 0 mm | - | 0 W/m² | - |
| 1778054484 | 9.44° C | 99% | 1009.9 hPa | 0 mm | - | 0 W/m² | - |
| 1778054182 | 9.44° C | 99% | 1009.8 hPa | 0 mm | - | 0 W/m² | - |
| 1778053878 | 9.44° C | 99% | 1009.6 hPa | 0 mm | - | 0 W/m² | - |
| 1778052971 | 9.44° C | 99% | 1009.8 hPa | 0 mm | - | 0 W/m² | - |
| 1778052668 | 9.44° C | 99% | 1010.1 hPa | 0 mm | - | 0 W/m² | - |
| 1778052063 | 9.44° C | 99% | 1009.8 hPa | 0 mm | - | 0 W/m² | - |
| 1778051760 | 9.44° C | 99% | 1009.7 hPa | 0 mm | - | 0 W/m² | - |
| 1778051154 | 9.44° C | 99% | 1011 hPa | 0 mm | - | 0 W/m² | - |
| 1778049942 | 10° C | 99% | 1010 hPa | 1.27 mm | - | 0 W/m² | - |
| 1778049033 | 10° C | 99% | 1010 hPa | 3.05 mm | - | 0 W/m² | - |
| 1778048731 | 10° C | 99% | 1009.5 hPa | 13.72 mm | - | 0 W/m² | - |
| 1778048428 | 10° C | 99% | 1009.7 hPa | 8.89 mm | - | 0 W/m² | - |
| 1778047217 | 10° C | 99% | 1008.5 hPa | 1.27 mm | - | 0 W/m² | - |
| 1778046914 | 10° C | 99% | 1009 hPa | 3.05 mm | - | 0 W/m² | - |
| 1778046610 | 10° C | 99% | 1009.1 hPa | 1.78 mm | - | 0 W/m² | - |
| 1778046308 | 10° C | 99% | 1008.8 hPa | 1.27 mm | - | 0 W/m² | - |
| 1778045098 | 10° C | 99% | 1008 hPa | 16.76 mm | - | 0 W/m² | - |
| 1778044795 | 10° C | 99% | 1008.9 hPa | 11.94 mm | - | 0 W/m² | - |
* Rain latest hour (hover to see other rain measurements)
** Current wind speed in m/s (hover to see current wind gust speed)